Greer, SC

4:54 PM EST on February 24, 2017 (GMT -0500)
Greenville-Spartanburg International

Weather History for KGSP - March, 2013

Change the Weather History Date:

Friday, March 15, 2013

  Actual Average Record
Temperature  
Mean Temperature 50 °F 53 °F  
Max Temperature 71 °F 64 °F 88 °F (1967)
Min Temperature 29 °F 41 °F 11 °F (1993)
Degree Days  
Heating Degree Days 15 13  
Month to date heating degree days 288 216  
Since 1 July heating degree days 2474 2665  
Cooling Degree Days 0 0  
Month to date cooling degree days 0 0  
Year to date cooling degree days 0 0  
Moisture  
Dew Point 29 °F    
Average Humidity 48    
Maximum Humidity 69    
Minimum Humidity 26    
Precipitation  
Precipitation 0.00 in 0.15 in 5.23 in (1912)
Month to date precipitation 1.27 2.23  
Year to date precipitation 10.42 10.02  
Snow  
Snow 0.00 in 0.10 in T in (1960)
Month to date snowfall T 0.6  
Since 1 July snowfall 2.0 4.4  
Snow Depth 0.00 in    
Sea Level Pressure  
Sea Level Pressure 30.06 in    
Wind  
Wind Speed 8 mph (SW)    
Max Wind Speed 18 mph    
Max Gust Speed 25 mph    
Visibility 10 miles    
Events      
T = Trace of Precipitation, MM = Missing Value Source: NWS Daily Summary

Daily Weather History Graph

Daily Weather History Graph

Search for Another Location

Airport or City:

Trip Planner

Search our weather history database for the weather conditions in past years. The results will help you decide how hot, cold, wet, or windy it might be!

Date:

Astronomy

Mar. 15, 2013 Rise Set
Actual Time 7:39 AM EDT 7:36 PM EDT
Civil Twilight 7:13 AM EDT 8:01 PM EDT
Nautical Twilight 6:44 AM EDT 8:31 PM EDT
Astronomical Twilight 6:15 AM EDT 9:00 PM EDT
Moon 9:38 AM EDT (3/15) 11:38 PM EDT (3/15)
Length of Visible Light 12h 47m
Length of Day
11h 57m
Waxing Crescent, 15% of the Moon is Illuminated
Mar 15
Waxing Crescent
Mar 19
First Quarter
Mar 27
Full
Apr 3
Last Quarter
Apr 10
New

Hourly Weather History & Observations

Time (EDT) Temp. Windchill Dew Point Humidity Pressure Visibility Wind Dir Wind Speed Gust Speed Precip Events Conditions
12:53 AM 39.9 °F - 15.1 °F 36% 30.17 in 10.0 mi Calm Calm - N/A   Clear
1:53 AM 35.1 °F - 19.0 °F 52% 30.18 in 10.0 mi Calm Calm - N/A   Clear
2:53 AM 36.0 °F - 18.0 °F 48% 30.16 in 10.0 mi Calm Calm - N/A   Clear
3:53 AM 35.1 °F - 18.0 °F 50% 30.16 in 10.0 mi Calm Calm - N/A   Clear
4:53 AM 32.0 °F 27.5 °F 21.0 °F 64% 30.16 in 10.0 mi SW 4.6 mph - N/A   Clear
5:53 AM 35.1 °F - 18.0 °F 50% 30.16 in 10.0 mi Calm Calm - N/A   Clear
6:53 AM 34.0 °F - 21.0 °F 59% 30.18 in 10.0 mi Calm Calm - N/A   Clear
7:53 AM 30.0 °F - 21.0 °F 69% 30.18 in 10.0 mi Calm Calm - N/A   Clear
8:53 AM 37.0 °F 34.5 °F 25.0 °F 62% 30.19 in 10.0 mi WSW 3.5 mph - N/A   Clear
9:53 AM 44.1 °F 41.5 °F 21.9 °F 42% 30.17 in 10.0 mi SSW 4.6 mph - N/A   Clear
10:53 AM 50.0 °F - 28.9 °F 44% 30.16 in 10.0 mi SW 6.9 mph - N/A   Clear
11:53 AM 55.0 °F - 32.0 °F 42% 30.13 in 10.0 mi SW 9.2 mph - N/A   Clear
12:53 PM 59.0 °F - 32.0 °F 36% 30.09 in 10.0 mi SW 15.0 mph 21.9 mph N/A   Clear
1:53 PM 62.1 °F - 33.1 °F 34% 30.05 in 10.0 mi WSW 12.7 mph - N/A   Clear
2:53 PM 66.9 °F - 34.0 °F 30% 30.00 in 10.0 mi WSW 16.1 mph - N/A   Clear
3:53 PM 69.1 °F - 34.0 °F 27% 29.96 in 10.0 mi SW 17.3 mph 25.3 mph N/A   Clear
4:53 PM 70.0 °F - 36.0 °F 29% 29.93 in 10.0 mi SW 16.1 mph - N/A   Clear
5:53 PM 71.1 °F - 37.0 °F 29% 29.91 in 10.0 mi SW 18.4 mph 24.2 mph N/A   Clear
6:53 PM 69.1 °F - 37.9 °F 32% 29.90 in 10.0 mi SW 15.0 mph - N/A   Clear
7:53 PM 66.9 °F - 39.0 °F 36% 29.91 in 10.0 mi SW 13.8 mph - N/A   Scattered Clouds
8:53 PM 64.9 °F - 39.0 °F 39% 29.91 in 10.0 mi SW 8.1 mph 17.3 mph N/A   Clear
9:53 PM 63.0 °F - 39.9 °F 43% 29.92 in 10.0 mi WSW 8.1 mph - N/A   Clear
10:53 PM 61.0 °F - 39.9 °F 46% 29.91 in 10.0 mi SSW 10.4 mph - N/A   Clear
11:53 PM 60.1 °F - 39.9 °F 47% 29.91 in 10.0 mi SSW 9.2 mph - N/A   Clear